Weather in Martuk

Kazakhstan     50˚44′45″N   56˚30′14″E
temp.,
°C
wind,
m/s
gust,
m/s
humid.,
%
clouds,
%
prec.,
mm/h
press.,
hPa
HPBL,
m
3 december, thu
thu323:00−17˚ne33900 0.0 104121
02:00−17˚nne23890 0.0 104120
05:00−17˚n33870 0.0 104125
08:00−17˚n33870 0.0 104124
11:00−15˚n33860 0.0 104150
14:00−13˚nnw34850 0.0 1040113
17:00−14˚nnw34810 0.0 104030
20:00−15˚nnw33810 0.0 104024
4 december, fri
fri423:00−15˚n33810 0.0 104022
02:00−15˚n23810 0.0 104020
05:00−15˚n23790 0.0 104121
08:00−16˚n23780 0.0 104020
11:00−14˚nne23780 0.0 104123
14:00−11˚nne23790 0.0 104146
17:00−14˚nne23760 0.0 104120
20:00−15˚nne23750 0.0 104120
5 december, sat
sat523:00−15˚nne227610 0.0 104120
02:00−15˚nne227813 0.0 104120
05:00−15˚n22787 0.0 104120
08:00−15˚nne237939 0.0 104120
11:00−13˚nne228120 0.0 104121
14:00−11˚ne23880 0.0 1041102
17:00−13˚ne33910 0.0 104023
20:00−14˚ene34920 0.0 104132
6 december, sun
sun623:00−15˚ene34910 0.0 104139
02:00−16˚ene33910 0.0 104225
05:00−17˚ene33910 0.0 104223
08:00−17˚ene33910 0.0 104226
11:00−15˚ene23910 0.0 104352
14:00−12˚ne22910 0.0 104286
17:00−14˚nne23910 0.0 104120
20:00−15˚n23920 0.0 104020
7 december, mon
mon723:00−16˚n22940 0.0 104020
02:00−17˚nnw12950 0.0 103920
05:00−17˚nnw12970 0.0 103820
08:00−17˚nnw129620 0.0 103820
11:00−14˚nw119460 0.0 103722
14:00−13˚wnw229367 0.0 1036121
17:00−16˚wnw239338 0.0 103620
20:00−17˚wnw22870 0.0 103620